North Platte, NE

2:14 PM CST on January 21, 2017 (GMT -0600)
North Platte Regional-Bird

Weather History for KLBF - October, 2013

Change the Weather History Date:

Tuesday, October 29, 2013

  Actual Average Record
Temperature  
Mean Temperature 36 °F 44 °F  
Max Temperature 38 °F 59 °F 85 °F (1950)
Min Temperature 33 °F 29 °F 4 °F (1913)
Degree Days  
Heating Degree Days 29 21  
Month to date heating degree days 482 454  
Since 1 July heating degree days 565 625  
Cooling Degree Days 0 0  
Month to date cooling degree days 0 0  
Year to date cooling degree days 998 765  
Moisture  
Dew Point 33 °F    
Average Humidity 91    
Maximum Humidity 96    
Minimum Humidity 85    
Precipitation  
Precipitation 0.05 in 0.04 in 1.27 in (1956)
Month to date precipitation 1.66 1.48  
Year to date precipitation 21.10 19.11  
Snow  
Snow 0.00 in 0.10 in 11.50 in (1896)
Month to date snowfall 0.0 1.9  
Since 1 July snowfall 0.0 2.1  
Since 1 September snowfall 0.0 2.1  
Snow Depth 0.00 in    
Sea Level Pressure  
Sea Level Pressure 30.07 in    
Wind  
Wind Speed 9 mph (NNE)    
Max Wind Speed 17 mph    
Max Gust Speed 23 mph    
Visibility 6 miles    
Events Rain    
T = Trace of Precipitation, MM = Missing Value Source: NWS Daily Summary

Daily Weather History Graph

Daily Weather History Graph

Search for Another Location

Airport or City:

Trip Planner

Search our weather history database for the weather conditions in past years. The results will help you decide how hot, cold, wet, or windy it might be!

Date:

Astronomy

Oct. 29, 2013 Rise Set
Actual Time 8:10 AM CDT 6:41 PM CDT
Civil Twilight 7:42 AM CDT 7:10 PM CDT
Nautical Twilight 7:09 AM CDT 7:42 PM CDT
Astronomical Twilight 6:37 AM CDT 8:14 PM CDT
Moon 2:59 AM CDT (10/29) 3:58 PM CDT (10/29)
Length of Visible Light 11h 27m
Length of Day
10h 31m
Waning Crescent, 25% of the Moon is Illuminated
Oct 29
Waning Crescent
Nov 3
New
Nov 9
First Quarter
Nov 17
Full
Nov 25
Last Quarter

Hourly Weather History & Observations

Time (CDT) Temp. Windchill Dew Point Humidity Pressure Visibility Wind Dir Wind Speed Gust Speed Precip Events Conditions
12:26 AM 35.6 °F 28.6 °F 33.8 °F 93% 30.10 in 2.5 mi NNE 9.2 mph - 0.00 in Rain Light Rain
12:53 AM 36.0 °F 29.0 °F 34.0 °F 93% 30.14 in 2.5 mi NNE 9.2 mph - 0.00 in Rain Light Rain
1:53 AM 36.0 °F 28.5 °F 34.0 °F 93% 30.12 in 2.0 mi NNE 10.4 mph - 0.04 in Rain Rain
2:05 AM 35.6 °F 28.0 °F 33.8 °F 93% 30.10 in 4.0 mi NNE 10.4 mph - 0.00 in Rain Light Rain
2:53 AM 36.0 °F 28.0 °F 34.0 °F 93% 30.11 in 4.0 mi NNE 11.5 mph - 0.00 in Rain Light Rain
3:53 AM 36.0 °F 27.5 °F 34.0 °F 93% 30.08 in 4.0 mi NNE 12.7 mph - 0.00 in Rain Light Rain
4:53 AM 35.1 °F 26.4 °F 33.1 °F 92% 30.09 in 5.0 mi NNE 12.7 mph 19.6 mph 0.00 in   Overcast
5:53 AM 34.0 °F 26.6 °F 32.0 °F 92% 30.10 in 5.0 mi North 9.2 mph - 0.02 in Rain Light Rain
6:53 AM 34.0 °F 23.8 °F 30.9 °F 89% 30.09 in 5.0 mi NNE 16.1 mph 23.0 mph 0.00 in Rain Light Rain
7:53 AM 33.1 °F 23.9 °F 30.9 °F 92% 30.09 in 6.0 mi NNE 12.7 mph - 0.00 in   Overcast
8:45 AM 33.8 °F 25.8 °F 30.2 °F 87% 30.04 in 2.5 mi NNE 10.4 mph - 0.00 in Rain Light Rain
8:53 AM 33.1 °F 25.5 °F 30.9 °F 92% 30.09 in 3.0 mi NNE 9.2 mph - 0.00 in Rain Light Rain
9:34 AM 33.8 °F 25.8 °F 30.2 °F 87% 30.05 in 2.5 mi NNE 10.4 mph - 0.00 in   Overcast
9:53 AM 33.1 °F 25.5 °F 30.9 °F 92% 30.11 in 2.5 mi NNE 9.2 mph - 0.00 in   Overcast
10:00 AM 33.8 °F 27.7 °F 30.2 °F 87% 30.06 in 3.0 mi NNE 6.9 mph - N/A   Overcast
10:09 AM 33.8 °F 26.4 °F 30.2 °F 87% 30.06 in 2.5 mi NNE 9.2 mph - N/A   Overcast
10:27 AM 33.8 °F 26.4 °F 30.2 °F 87% 30.06 in 3.0 mi NE 9.2 mph - N/A   Overcast
10:53 AM 33.1 °F 26.1 °F 32.0 °F 96% 30.12 in 3.0 mi North 8.1 mph - N/A   Overcast
11:02 AM 33.8 °F 25.8 °F 32.0 °F 93% 30.07 in 2.5 mi NNE 10.4 mph - N/A   Overcast
11:35 AM 33.8 °F 25.3 °F 30.2 °F 87% 30.08 in 3.0 mi North 11.5 mph - N/A   Overcast
11:53 AM 33.1 °F 24.9 °F 30.9 °F 92% 30.14 in 2.5 mi North 10.4 mph - N/A   Overcast
12:16 PM 33.8 °F 27.0 °F 32.0 °F 93% 30.07 in 4.0 mi NNE 8.1 mph - 0.00 in Rain Light Rain
12:41 PM 33.8 °F 25.8 °F 32.0 °F 93% 30.05 in 2.5 mi NNE 10.4 mph - 0.00 in   Overcast
12:53 PM 34.0 °F 25.0 °F 32.0 °F 92% 30.09 in 2.5 mi NNE 12.7 mph - 0.00 in   Overcast
1:00 PM 35.6 °F 27.1 °F 32.0 °F 87% 30.03 in 3.0 mi NE 12.7 mph - N/A   Overcast
1:30 PM 35.6 °F 28.6 °F 33.8 °F 93% 30.02 in 10.0 mi NE 9.2 mph - N/A   Overcast
1:38 PM 35.6 °F 29.9 °F 33.8 °F 93% 30.01 in 10.0 mi NE 6.9 mph - N/A   Overcast
1:53 PM 37.0 °F 31.6 °F 34.0 °F 89% 30.05 in 10.0 mi NNE 6.9 mph - N/A   Overcast
2:53 PM 37.9 °F 31.5 °F 35.1 °F 89% 30.01 in 10.0 mi NNE 9.2 mph - N/A   Overcast
3:53 PM 37.9 °F 32.7 °F 35.1 °F 89% 30.02 in 10.0 mi NNE 6.9 mph - N/A   Overcast
4:53 PM 37.9 °F 33.5 °F 35.1 °F 89% 30.03 in 10.0 mi North 5.8 mph - N/A   Overcast
5:53 PM 37.0 °F 31.0 °F 35.1 °F 93% 30.04 in 10.0 mi North 8.1 mph - N/A   Overcast
6:53 PM 36.0 °F 29.0 °F 34.0 °F 93% 30.05 in 10.0 mi North 9.2 mph - N/A   Overcast
7:53 PM 36.0 °F 30.3 °F 34.0 °F 93% 30.08 in 10.0 mi North 6.9 mph - N/A   Overcast
8:53 PM 36.0 °F 32.1 °F 34.0 °F 93% 30.08 in 10.0 mi NNE 4.6 mph - N/A   Overcast
9:53 PM 36.0 °F 32.1 °F 34.0 °F 93% 30.07 in 10.0 mi NE 4.6 mph - N/A   Overcast
10:53 PM 36.0 °F 32.1 °F 34.0 °F 93% 30.09 in 10.0 mi NNE 4.6 mph - N/A   Overcast
11:53 PM 35.1 °F 28.6 °F 33.1 °F 92% 30.09 in 4.0 mi North 8.1 mph - N/A   Overcast